Tracking 30306 objects as of 25-Apr-2025
HD Live streaming from Space Station
objects crossing your sky now

IRIDIUM 33 DEB

Track IRIDIUM 33 DEB now!
10-day predictions


NORAD ID: 38241
Int'l Code: 1997-051ZR
Perigee: 718.5 km
Apogee: 726.7 km
Inclination: 86.3 °
Period: 99.1 minutes
Semi major axis: 7093 km
RCS: 0.0216 m2 (small)
Launch date: September 14, 1997
Source: United States (US)
Launch site: TYURATAM MISSILE AND SPACE COMPLEX (TTMTR)

Note: This is SATELLITE DEBRIS
Your satellite tracking list
Your tracking list is empty




NASA's NSSDC Master Catalog

Two Line Element Set (TLE):
1 38241U 97051ZR  25113.67096324  .00005674  00000-0  13667-2 0  9996
2 38241  86.3184  93.2453 0005827 104.4476 255.7378 14.53127759568149
Source of the keplerian elements: AFSPC